User: anonymous   Login
Location: Unspecified
(0.0000°N, 0.0000°E)
Time: 20:33:43
(UTC+00:00)
Language:

POLYITAN-2-SAU - Orbit

View from above orbital plane
View from above orbital plane
View from above satellite
View from above satellite

Ground track
Ground track

The orbit data is extracted from the following two-line orbital elements,

1 42732U 98067MM  18351.55253515  .00112323  15855-4  34460-3 0  9997
2 42732  51.6267 126.7068 0002885 233.4693 126.6048 15.91725816 89380
Epoch (UTC): 17 December 2018 13:15:39
Eccentricity: 0.0002885
inclination: 51.6267°
perigee height: 295 km
apogee height: 299 km
right ascension of ascending node: 126.7068°
argument of perigee: 233.4693°
revolutions per day: 15.91725816
mean anomaly at epoch: 126.6048°
orbit number at epoch: 8938

The dashed part of the orbit path shows where the satellite is in the earth's shadow,  

DLR